This demonstration page uses our WeatherBlox Daily Observations layout. Learn more.

Left ArrowRight Arrow

39.51506, -84.39828

Hourly Observations for April 27, 2015

Temp ( °F °C ) Dew Point ( °F °C ) Humidity (%) Winds ( mph kmh ) Pressure ( in mb ) Visibility ( mi km ) Precip ( " mm )
12:15 am 00:15 Partly Cloudy 40 4.7 35 1.5 80 80 N N/A 29.94 1014 10 16.0934 N/A
12:35 am 00:35 Partly Cloudy 40 4.3 35 1.4 82 82 N N/A 29.94 1014 10 16.0934 N/A
12:55 am 00:55 Clear 39 4 34 1 81 81 N N/A 29.94 1014 10 16.0934 N/A
1:15 am 01:15 Clear 39 4 34 1.3 83 83 N N/A 29.94 1014 10 16.0934 N/A
1:35 am 01:35 Clear 38 3.1 33 0.5 83 83 N N/A 29.94 1014 10 16.0934 N/A
1:55 am 01:55 Clear 39 4 35 1.5 84 84 N N/A 29.94 1014 10 16.0934 N/A
2:15 am 02:15 Clear 37 2.6 33 0.3 85 85 N N/A 29.94 1014 10 16.0934 N/A
2:35 am 02:35 Clear 37 2.6 33 0.3 85 85 N N/A 29.94 1014 10 16.0934 N/A
2:55 am 02:55 Mostly Cloudy 37 2.9 33 0.6 85 85 N N/A 29.94 1014 10 16.0934 N/A
3:15 am 03:15 Partly Cloudy 37 2.6 33 0.5 86 86 WSW 5 7 29.94 1014 10 16.0934 N/A
3:35 am 03:35 Clear 37 2.8 33 0.8 87 87 N N/A 29.94 1014 10 16.0934 N/A
3:55 am 03:55 Clear 37 2.6 33 0.4 86 86 N N/A 29.94 1014 10 16.0934 N/A
4:15 am 04:15 Clear 37 2.6 33 0.5 86 86 N N/A 29.91 1013 10 16.0934 N/A
4:35 am 04:35 Clear 37 2.6 33 0.6 87 87 NNE 6 9 29.94 1014 10 16.0934 N/A
4:55 am 04:55 Clear 37 2.6 33 0.7 87 87 E 3 6 29.94 1014 10 16.0934 N/A
5:15 am 05:15 Clear 37 2.6 33 0.6 87 87 N 3 6 29.94 1014 10 16.0934 N/A
5:35 am 05:35 Clear 37 2.6 33 0.6 87 87 N N/A 29.94 1014 10 16.0934 N/A
5:55 am 05:55 Clear 37 2.6 33 0.7 87 87 N N/A 29.94 1014 10 16.0934 N/A
6:15 am 06:15 Clear 37 2.5 33 0.6 87 87 N N/A 29.94 1014 10 16.0934 N/A
6:35 am 06:35 Clear 34 1.2 31 -0.5 89 89 N N/A 29.97 1015 10 16.0934 N/A
6:55 am 06:55 Sunny 34 1.2 31 -0.5 89 89 N N/A 29.97 1015 10 16.0934 N/A
7:15 am 07:15 Sunny 37 2.6 33 0.7 87 87 N N/A 29.94 1014 10 16.0934 N/A
7:35 am 07:35 Sunny 37 2.6 33 0.7 87 87 N N/A 30 1016 10 16.0934 N/A
7:55 am 07:55 Sunny 39 3.9 36 2 88 88 N N/A 29.97 1015 10 16.0934 N/A
8:15 am 08:15 Sunny 40 4.3 36 2.2 86 86 N N/A 29.97 1015 10 16.0934 N/A
8:35 am 08:35 Sunny 42 5.6 37 2.8 82 82 N N/A 30 1016 10 16.0934 N/A
8:55 am 08:55 Sunny 45 7.3 38 3.2 75 75 N N/A 30 1016 10 16.0934 N/A
9:15 am 09:15 Sunny 49 9.6 39 3.8 67 67 N N/A 30 1016 10 16.0934 N/A
9:35 am 09:35 Sunny 49 9.6 37 2.7 62 62 N N/A 30 1016 10 16.0934 N/A
9:55 am 09:55 Sunny 51 10.4 36 2.3 58 58 N N/A 30 1016 10 16.0934 N/A
10:15 am 10:15 Sunny 54 12.4 39 3.7 56 56 N N/A 30 1016 10 16.0934 N/A
10:35 am 10:35 Sunny 55 12.5 37 2.6 51 51 NW 5 7 30 1016 10 16.0934 N/A
10:55 am 10:55 Sunny 55 12.6 34 1 45 45 WNW 5 7 30 1016 10 16.0934 N/A
11:15 am 11:15 Sunny 57 13.8 35 1.8 44 44 NW 9 15 30 1016 10 16.0934 N/A
11:35 am 11:35 Sunny 57 13.8 34 1.3 43 43 N 13 20 29.97 1015 10 16.0934 N/A
11:55 am 11:55 Sunny 57 14 34 1.1 42 42 N 8 13 30 1016 10 16.0934 N/A
12:15 pm 12:15 Sunny 60 15.3 35 1.6 40 40 NW 10 17 30 1016 10 16.0934 N/A
12:35 pm 12:35 Partly Cloudy 58 14.6 33 0.4 38 38 N 14 22 30 1016 10 16.0934 N/A
12:55 pm 12:55 Partly Cloudy 60 15.3 33 0.5 37 37 NNW 9 15 30 1016 10 16.0934 N/A
1:15 pm 13:15 Partly Cloudy 60 15.4 35 1.5 39 39 NNW 8 13 30 1016 10 16.0934 N/A
1:35 pm 13:35 Partly Cloudy 60 15.3 34 0.9 38 38 N 8 13 30 1016 10 16.0934 N/A
1:55 pm 13:55 Partly Cloudy 60 15.3 32 -0.2 35 35 N 3 6 30 1016 10 16.0934 N/A
2:15 pm 14:15 Partly Cloudy 61 16 33 0.6 35 35 NNW 14 22 29.97 1015 10 16.0934 N/A
2:35 pm 14:35 Partly Cloudy 60 15.3 33 0.5 37 37 NW 12 19 30 1016 10 16.0934 N/A
2:55 pm 14:55 Mostly Cloudy 60 15.4 33 0.5 36 36 NNE 9 15 29.94 1014 10 16.0934 N/A
3:15 pm 15:15 Mostly Cloudy 60 15.7 33 0.8 37 37 NW 8 13 29.94 1014 10 16.0934 N/A
3:35 pm 15:35 Cloudy 60 15.3 33 0.8 38 38 N 9 15 29.94 1014 10 16.0934 N/A
3:55 pm 15:55 Cloudy 60 15.3 34 1 38 38 N 7 11 29.94 1014 10 16.0934 N/A
4:15 pm 16:15 Cloudy 60 15.3 34 1.3 39 39 N 10 17 30 1016 10 16.0934 N/A
4:35 pm 16:35 Cloudy 60 15.3 34 1.1 38 38 NNW 13 20 30 1016 10 16.0934 N/A
4:55 pm 16:55 Cloudy 60 15.3 35 1.9 41 41 NNE 14 22 30 1016 10 16.0934 N/A
5:15 pm 17:15 Cloudy 60 15.3 36 2.1 41 41 NNE 15 24 30 1016 10 16.0934 N/A
5:35 pm 17:35 Partly Cloudy 60 15.3 35 1.9 41 41 N 13 20 30 1016 10 16.0934 N/A
5:55 pm 17:55 Mostly Cloudy 59 15.1 36 2.3 42 42 N 12 19 30 1016 10 16.0934 N/A
6:15 pm 18:15 Cloudy 57 13.8 34 1.1 42 42 N 13 20 30.03 1017 10 16.0934 N/A
6:35 pm 18:35 Cloudy 57 13.8 35 1.9 45 45 N 12 19 30.03 1017 10 16.0934 N/A
6:55 pm 18:55 Cloudy 57 13.8 36 2 45 45 N 13 20 30.03 1017 10 16.0934 N/A
7:15 pm 19:15 Cloudy 55 12.5 34 1.2 46 46 NNE 13 20 30.03 1017 10 16.0934 N/A
7:35 pm 19:35 Cloudy 55 12.5 35 1.7 48 48 NNE 8 13 30.03 1017 10 16.0934 N/A
7:55 pm 19:55 Cloudy 55 12.5 36 2 49 49 NNE 8 13 30.03 1017 10 16.0934 N/A
8:15 pm 20:15 Cloudy 55 12.5 36 2.1 49 49 NNE 13 20 30.06 1018 10 16.0934 N/A
8:35 pm 20:35 Cloudy 55 12.5 37 3 53 53 NE 9 15 30.06 1018 10 16.0934 N/A
8:55 pm 20:55 Cloudy 55 12.5 37 3 53 53 NNE 8 13 30.06 1018 10 16.0934 N/A
9:15 pm 21:15 Cloudy 54 12.4 38 3.5 55 55 NNE 9 15 30.06 1018 10 16.0934 N/A
9:35 pm 21:35 Cloudy 52 11 36 2.2 55 55 NNE 7 11 30.06 1018 10 16.0934 N/A
9:55 pm 21:55 Cloudy 52 11 37 2.6 56 56 NNE 8 13 30.09 1019 10 16.0934 N/A
10:15 pm 22:15 Cloudy 52 11 36 2.4 56 56 NNE 9 15 30.09 1019 10 16.0934 N/A
10:35 pm 22:35 Cloudy 50 9.9 36 2.1 59 59 NE 9 15 30.09 1019 10 16.0934 N/A
10:55 pm 22:55 Partly Cloudy 49 9.6 36 2.1 60 60 NNE 8 13 30.09 1019 10 16.0934 N/A
11:15 pm 23:15 Clear 49 9.6 37 2.8 63 63 NNE 6 9 30.09 1019 10 16.0934 N/A
11:35 pm 23:35 Clear 49 9.6 38 3.1 64 64 NNE 5 7 30.09 1019 10 16.0934 N/A
11:55 pm 23:55 Clear 49 9.6 38 3.5 66 66 NNE 3 6 30.09 1019 10 16.0934 N/A

Powered by AerisWeather